datetime,flow
2021-08-02,12.4
2021-08-03,12.3
2021-08-04,12.3
2021-08-05,12.3
2021-08-06,12.3
2021-08-07,12.3
2021-08-08,12.3
2021-08-09,12.3
2021-08-10,12.3
2021-08-11,12.3
2021-08-12,12.3
2021-08-13,12.5
2021-08-14,12.4
2021-08-15,12.4
2021-08-16,12.4
2021-08-17,12.4
2021-08-18,12.5
2021-08-19,12.5
2021-08-20,12.5
2021-08-21,12.5
2021-08-22,12.5
2021-08-23,12.5
2021-08-24,12.5
2021-08-25,12.5
2021-08-26,12.5
2021-08-27,12.5
2021-08-28,12.5
2021-08-29,12.5
2021-08-30,12.5
2021-08-31,12.5
2021-09-01,12.5
2021-09-02,12.5
2021-09-03,12.5
2021-09-04,12.5
2021-09-05,12.5
2021-09-06,12.5
2021-09-07,12.5
2021-09-08,12.5
2021-09-09,12.5
2021-09-10,13.5
2021-09-11,12.9
2021-09-12,12.9
2021-09-13,12.9
2021-09-14,12.8
2021-09-15,12.8
2021-09-16,12.7
2021-09-17,12.7
2021-09-18,13.4
2021-09-19,13.6
2021-09-20,13.1
2021-09-21,13.0
2021-09-22,13.0
2021-09-23,13.0
2021-09-24,13.0
2021-09-25,13.0
2021-09-26,12.9
2021-09-27,13.6
2021-09-28,13.7
2021-09-29,13.7
2021-09-30,13.7
2021-10-01,13.7
2021-10-02,13.7
2021-10-03,13.7
2021-10-04,13.7
2021-10-05,13.7
2021-10-06,13.7
2021-10-07,13.7
2021-10-08,13.7
2021-10-09,13.7
2021-10-10,13.7
2021-10-11,13.7
2021-10-12,13.7
2021-10-13,13.7
2021-10-14,13.7
2021-10-15,13.7
2021-10-16,13.7
2021-10-17,13.8
2021-10-18,13.7
2021-10-19,14.2
2021-10-20,14.9
2021-10-21,15.0
2021-10-22,16.0
2021-10-23,15.5
2021-10-24,18.0
2021-10-25,15.6
2021-10-26,15.9
2021-10-27,15.3
2021-10-28,14.7
2021-10-29,14.6
2021-10-30,15.2
2021-10-31,14.6
2021-11-01,18.1
2021-11-02,15.5
2021-11-03,14.4
2021-11-04,15.4
2021-11-05,14.9
2021-11-06,15.3
2021-11-07,14.4
2021-11-08,14.1
2021-11-09,15.0
2021-11-10,16.0
2021-11-11,19.0
2021-11-12,16.0
2021-11-13,15.0
2021-11-14,14.7
2021-11-15,14.8
2021-11-16,15.0
2021-11-17,14.2
2021-11-18,14.1
2021-11-19,14.1
2021-11-20,13.9
2021-11-21,13.6
2021-11-22,13.6
2021-11-23,13.6
2021-11-24,13.6
2021-11-25,13.6
2021-11-26,13.6
2021-11-27,13.8
2021-11-28,13.6
2021-11-29,13.6
2021-11-30,13.6
2021-12-01,13.5
2021-12-02,13.5
2021-12-03,13.5
2021-12-04,13.5
2021-12-05,13.3
2021-12-06,13.3
2021-12-07,13.3
2021-12-08,13.3
2021-12-09,13.2
2021-12-10,13.1
2021-12-11,13.6
2021-12-12,13.7
2021-12-13,13.6
2021-12-14,13.2
2021-12-15,13.3
2021-12-16,13.4
2021-12-17,13.1
2021-12-18,13.1
2021-12-19,13.5
2021-12-20,13.4
2021-12-21,13.1
2021-12-22,13.4
2021-12-23,13.7
2021-12-24,13.6
2021-12-25,13.5
2021-12-26,13.6
2021-12-27,14.6
2021-12-28,14.7
2021-12-29,14.7
2021-12-30,14.5
2021-12-31,14.2
2022-01-01,14.2
2022-01-02,14.2
2022-01-03,14.6
2022-01-04,14.4
2022-01-05,19.2
2022-01-06,18.8
2022-01-07,18.5
2022-01-08,16.8
2022-01-09,15.8
2022-01-10,15.4
2022-01-11,15.1
2022-01-12,15.1
2022-01-13,15.1
2022-01-14,14.9
2022-01-15,14.6
2022-01-16,14.6
2022-01-17,14.7
2022-01-18,14.7
2022-01-19,14.7
2022-01-20,14.7
2022-01-21,15.2
2022-01-22,15.2
2022-01-23,15.2
2022-01-24,15.2
2022-01-25,15.2
2022-01-26,15.2
2022-01-27,15.2
2022-01-28,15.1
2022-01-29,14.9
2022-01-30,14.9
2022-01-31,15.0
2022-02-01,14.7
2022-02-02,14.7
2022-02-03,14.7
2022-02-04,14.7
2022-02-05,14.7
2022-02-06,14.7
2022-02-07,14.7
2022-02-08,14.7
2022-02-09,14.7
2022-02-10,14.7
2022-02-11,15.0
2022-02-12,15.2
2022-02-13,15.2
2022-02-14,15.3
2022-02-15,15.2
2022-02-16,15.2
2022-02-17,15.2
2022-02-18,15.2
2022-02-19,15.2
2022-02-20,15.2
2022-02-21,15.3
2022-02-22,15.2
2022-02-23,15.2
2022-02-24,15.2
2022-02-25,15.2
2022-02-26,15.2
2022-02-27,15.2
2022-02-28,15.2
2022-03-01,15.2
2022-03-02,15.4
2022-03-03,15.8
2022-03-04,15.8
2022-03-05,15.3
2022-03-06,15.2
2022-03-07,15.2
2022-03-08,15.3
2022-03-09,15.2
2022-03-10,15.2
2022-03-11,15.2
2022-03-12,15.4
2022-03-13,15.4
2022-03-14,15.4
2022-03-15,18.1
2022-03-16,16.8
2022-03-17,16.4
2022-03-18,16.4
2022-03-19,16.6
2022-03-20,16.4
2022-03-21,16.5
2022-03-22,17.0
2022-03-23,18.1
2022-03-24,18.6
2022-03-25,19.1
2022-03-26,20.0
2022-03-27,20.5
2022-03-28,20.7
2022-03-29,21.2
2022-03-30,21.4
2022-03-31,21.0
2022-04-01,20.7
2022-04-02,20.6
2022-04-03,20.4
2022-04-04,25.4
2022-04-05,22.2
2022-04-06,20.6
2022-04-07,20.7
2022-04-08,21.4
2022-04-09,21.1
2022-04-10,20.6
2022-04-11,20.8
2022-04-12,20.1
2022-04-13,19.8
2022-04-14,19.2
2022-04-15,18.9
2022-04-16,18.7
2022-04-17,18.4
2022-04-18,18.6
2022-04-19,18.4
2022-04-20,18.4
2022-04-21,19.0
2022-04-22,18.5
2022-04-23,18.5
2022-04-24,18.7
2022-04-25,19.5
2022-04-26,20.1
2022-04-27,19.8
2022-04-28,20.0
2022-04-29,20.1
2022-04-30,23.8
2022-05-01,24.5
2022-05-02,24.5
2022-05-03,23.4
2022-05-04,24.6
2022-05-05,36.5
2022-05-06,51.2
2022-05-07,44.7
2022-05-08,33.7
2022-05-09,28.5
2022-05-10,26.4
2022-05-11,25.3
2022-05-12,25.1
2022-05-13,25.6
2022-05-14,33.0
2022-05-15,35.2
2022-05-16,38.2
2022-05-17,38.4
2022-05-18,37.6
2022-05-19,37.4
2022-05-20,32.8
2022-05-21,31.2
2022-05-22,30.3
2022-05-23,31.6
2022-05-24,33.6
2022-05-25,35.9
2022-05-26,36.7
2022-05-27,35.6
2022-05-28,35.3
2022-05-29,37.2
2022-05-30,32.6
2022-05-31,29.3
2022-06-01,29.3
2022-06-02,30.8
2022-06-03,31.0
2022-06-04,32.1
2022-06-05,42.6
2022-06-06,37.6
2022-06-07,34.4
2022-06-08,31.9
2022-06-09,31.2
2022-06-10,32.0
2022-06-11,34.2
2022-06-12,40.1
2022-06-13,35.1
2022-06-14,28.9
2022-06-15,26.9
2022-06-16,26.1
2022-06-17,26.2
2022-06-18,25.2
2022-06-19,24.2
2022-06-20,23.5
2022-06-21,22.8
2022-06-22,22.7
2022-06-23,22.3
2022-06-24,21.7
2022-06-25,20.8
2022-06-26,20.4
2022-06-27,20.0
2022-06-28,19.3
2022-06-29,18.8
2022-06-30,18.5
2022-07-01,18.0
2022-07-02,17.7
2022-07-03,17.7
2022-07-04,18.0
2022-07-05,18.2
2022-07-06,17.7
2022-07-07,17.6
2022-07-08,17.4
2022-07-09,17.1
2022-07-10,16.9
2022-07-11,16.8
2022-07-12,16.7
2022-07-13,16.5
2022-07-14,16.4
2022-07-15,16.3
2022-07-16,16.3
2022-07-17,16.2
2022-07-18,16.1
2022-07-19,16.0
2022-07-20,15.9
2022-07-21,15.8
2022-07-22,15.8
2022-07-23,15.8
2022-07-24,15.6
2022-07-25,15.6
2022-07-26,15.6
2022-07-27,15.6
2022-07-28,15.5
2022-07-29,15.5
2022-07-30,15.5
2022-07-31,15.4
2022-08-01,15.5
2022-08-02,18.9
2022-08-03,16.4
2022-08-04,16.0
2022-08-05,15.6
2022-08-06,15.5
2022-08-07,15.4
2022-08-08,15.3
2022-08-09,15.2
2022-08-10,15.1
2022-08-11,15.1
2022-08-12,15.0
2022-08-13,15.0
2022-08-14,15.0
2022-08-15,15.1
2022-08-16,15.1
2022-08-17,15.1
2022-08-18,15.2
2022-08-19,15.2
2022-08-20,15.1
2022-08-21,15.1
2022-08-22,15.0
2022-08-23,15.1
2022-08-24,15.1
2022-08-25,15.0
2022-08-26,15.0
2022-08-27,15.1
2022-08-28,15.1
2022-08-29,15.0
2022-08-30,15.0
2022-08-31,15.0
2022-09-01,15.0
2022-09-02,15.0
2022-09-03,14.9
2022-09-04,15.0
2022-09-05,15.0
2022-09-06,15.0
2022-09-07,15.1
2022-09-08,15.1
2022-09-09,15.1
2022-09-10,15.1
2022-09-11,15.2
2022-09-12,15.1
2022-09-13,15.2
2022-09-14,15.2
2022-09-15,15.2
2022-09-16,15.2
2022-09-17,15.4
2022-09-18,15.8
2022-09-19,15.7
2022-09-20,16.7
2022-09-21,15.8
2022-09-22,15.8
2022-09-23,15.8
2022-09-24,15.6
2022-09-25,15.3
2022-09-26,15.8
2022-09-27,15.8
2022-09-28,13.1
2022-09-29,13.2
2022-09-30,13.2
2022-10-01,13.0
2022-10-02,13.0
2022-10-03,13.0
2022-10-04,13.0
2022-10-05,13.0
2022-10-06,13.0
2022-10-07,13.0
2022-10-08,13.0
2022-10-09,13.0
2022-10-10,13.0
2022-10-11,13.0
2022-10-12,13.0
2022-10-13,13.0
2022-10-14,13.0
2022-10-15,13.0
2022-10-16,13.0
2022-10-17,13.0
2022-10-18,13.1
2022-10-19,13.1
2022-10-20,13.2
2022-10-21,13.6
2022-10-22,15.5
2022-10-23,13.8
2022-10-24,13.9
2022-10-25,13.8
2022-10-26,14.0
2022-10-27,13.5
2022-10-28,13.4
2022-10-29,13.3
2022-10-30,13.3
2022-10-31,13.2
2022-11-01,13.1
2022-11-02,13.1
2022-11-03,13.0
2022-11-04,13.7
2022-11-05,20.9
2022-11-06,14.6
2022-11-07,13.6
2022-11-08,13.5
2022-11-09,13.3
2022-11-10,13.0
2022-11-11,13.0
2022-11-12,13.0
2022-11-13,13.0
2022-11-14,13.0
2022-11-15,12.8
2022-11-16,12.8
2022-11-17,12.9
2022-11-18,12.9
2022-11-19,12.8
2022-11-20,12.6
2022-11-21,12.6
2022-11-22,13.0
2022-11-23,13.1
2022-11-24,13.0
2022-11-25,13.0
2022-11-26,13.0
2022-11-27,13.1
2022-11-28,13.1
2022-11-29,13.0
2022-11-30,13.0
2022-12-01,13.0
2022-12-02,12.5
2022-12-03,12.5
2022-12-04,12.8
2022-12-05,12.6
2022-12-06,12.5
2022-12-07,12.5
2022-12-08,12.7
2022-12-09,12.8
2022-12-10,13.0
2022-12-11,12.5
2022-12-12,12.5
2022-12-13,12.5
2022-12-14,12.5
2022-12-15,12.5
2022-12-16,12.5
2022-12-17,12.5
2022-12-18,12.5
2022-12-19,12.5
2022-12-20,12.8
2022-12-21,14.7
2022-12-22,13.2
2022-12-23,13.7
2022-12-24,13.9
2022-12-25,14.1
2022-12-26,15.9
2022-12-27,37.1
2022-12-28,21.9
2022-12-29,17.8
2022-12-30,25.9
2022-12-31,31.2
2023-01-01,22.4
2023-01-02,18.8
2023-01-03,17.1
2023-01-04,16.8
2023-01-05,20.4
2023-01-06,17.6
2023-01-07,17.0
2023-01-08,16.5
2023-01-09,16.4
2023-01-10,15.9
2023-01-11,15.7
2023-01-12,15.6
2023-01-13,16.4
2023-01-14,16.6
2023-01-15,16.1
2023-01-16,15.4
2023-01-17,15.2
2023-01-18,14.8
2023-01-19,14.7
2023-01-20,14.6
2023-01-21,14.3
2023-01-22,14.1
2023-01-23,14.7
2023-01-24,14.7
2023-01-25,14.7
2023-01-26,14.7
2023-01-27,14.7
2023-01-28,14.7
2023-01-29,14.5
2023-01-30,14.0
2023-01-31,14.1
2023-02-01,14.1
2023-02-02,14.1
2023-02-03,14.1
2023-02-04,14.2
2023-02-05,14.2
2023-02-06,14.0
2023-02-07,13.9
2023-02-08,14.0
2023-02-09,14.1
2023-02-10,14.0
2023-02-11,13.7
2023-02-12,13.6
2023-02-13,13.7
2023-02-14,13.7
2023-02-15,13.6
2023-02-16,13.6
2023-02-17,13.6
2023-02-18,13.6
2023-02-19,13.6
2023-02-20,13.6
2023-02-21,13.6
2023-02-22,13.6
2023-02-23,13.6
2023-02-24,13.6
2023-02-25,13.5
2023-02-26,13.5
2023-02-27,13.4
2023-02-28,13.6
2023-03-01,13.1
2023-03-02,13.2
2023-03-03,13.1
2023-03-04,13.4
2023-03-05,13.4
2023-03-06,13.2
2023-03-07,13.3
2023-03-08,13.4
2023-03-09,13.5
2023-03-10,13.5
2023-03-11,13.1
2023-03-12,13.4
2023-03-13,14.5
2023-03-14,14.5
2023-03-15,13.6
2023-03-16,13.5
2023-03-17,13.5
2023-03-18,13.4
2023-03-19,13.8
2023-03-20,13.7
2023-03-21,13.6
2023-03-22,13.6
2023-03-23,13.5
2023-03-24,13.5
2023-03-25,13.4
2023-03-26,13.1
2023-03-27,13.3
2023-03-28,13.6
2023-03-29,13.2
2023-03-30,13.0
2023-03-31,13.0
2023-04-01,13.4
2023-04-02,13.3
2023-04-03,13.0
2023-04-04,13.0
2023-04-05,13.0
2023-04-06,13.6
2023-04-07,14.9
2023-04-08,14.2
2023-04-09,14.1
2023-04-10,14.9
2023-04-11,16.7
2023-04-12,15.4
2023-04-13,15.2
2023-04-14,15.1
2023-04-15,15.3
2023-04-16,11.2
2023-04-17,11.5
2023-04-18,11.3
2023-04-19,11.1
2023-04-20,11.0
2023-04-21,11.4
2023-04-22,12.0
2023-04-23,13.4
2023-04-24,15.1
2023-04-25,14.9
2023-04-26,15.4
2023-04-27,18.6
2023-04-28,26.1
2023-04-29,45.5
2023-04-30,58.9
2023-05-01,64.0
2023-05-02,51.8
2023-05-03,46.5
2023-05-04,48.6
2023-05-05,48.3
2023-05-06,48.9
2023-05-07,41.7
2023-05-08,39.8
2023-05-09,40.1
2023-05-10,43.1
2023-05-11,47.8
2023-05-12,55.5
2023-05-13,69.9
2023-05-14,82.2
2023-05-15,91.5
2023-05-16,93.0
2023-05-17,89.6
2023-05-18,93.1
2023-05-19,103.0
2023-05-20,111.0
2023-05-21,115.0
2023-05-22,94.3
2023-05-23,72.7
2023-05-24,64.0
2023-05-25,60.9
2023-05-26,55.4
2023-05-27,52.3
2023-05-28,47.8
2023-05-29,48.3
2023-05-30,49.3
2023-05-31,43.5
2023-06-01,35.5
2023-06-02,30.6
2023-06-03,30.2
2023-06-04,30.4
2023-06-05,30.7
2023-06-06,30.0
2023-06-07,34.5
2023-06-08,30.3
2023-06-09,27.7
2023-06-10,25.0
2023-06-11,22.7
2023-06-12,22.5
2023-06-13,22.4
2023-06-14,20.7
2023-06-15,18.1
2023-06-16,16.8
2023-06-17,16.7
2023-06-18,16.1
2023-06-19,15.1
2023-06-20,14.1
2023-06-21,13.3
2023-06-22,13.0
2023-06-23,12.8
2023-06-24,12.6
2023-06-25,12.6
2023-06-26,12.2
2023-06-27,11.8
2023-06-28,11.5
2023-06-29,11.1
2023-06-30,10.9
2023-07-01,10.6
2023-07-02,10.2
2023-07-03,10.0
2023-07-04,9.78
2023-07-05,9.65
2023-07-06,9.48
2023-07-07,9.36
2023-07-08,9.27
2023-07-09,9.19
2023-07-10,9.09
2023-07-11,9.0
2023-07-12,9.03
2023-07-13,9.03
2023-07-14,8.98
2023-07-15,8.88
2023-07-16,8.77
2023-07-17,8.63
2023-07-18,8.6
2023-07-19,8.58
2023-07-20,8.55
2023-07-21,8.48
2023-07-22,8.42
2023-07-23,8.41
2023-07-24,8.43
2023-07-25,8.39
2023-07-26,8.44
2023-07-27,8.4
2023-07-28,8.41
2023-07-29,8.38
2023-07-30,8.42
2023-07-31,8.37
2023-08-01,8.39
2023-08-02,8.36
2023-08-03,8.38
2023-08-04,9.32
2023-08-05,8.76
2023-08-06,8.64
2023-08-07,8.67
2023-08-08,8.55
2023-08-09,13.6
2023-08-10,13.5
2023-08-11,13.4
2023-08-12,13.4
2023-08-13,13.4
2023-08-14,13.3
2023-08-15,13.3
2023-08-16,13.2
2023-08-17,13.5
2023-08-18,13.5
2023-08-19,13.5
2023-08-20,13.5
2023-08-21,13.5
2023-08-22,13.5
2023-08-23,13.5
2023-08-24,13.4
2023-08-25,13.4
2023-08-26,13.3
2023-08-27,13.2
2023-08-28,13.2
2023-08-29,13.1
2023-08-30,13.2
2023-08-31,13.3
2023-09-01,14.2
2023-09-02,13.9
2023-09-03,13.6
2023-09-04,13.6
2023-09-05,13.5
2023-09-06,13.5
2023-09-07,13.5
2023-09-08,13.5
2023-09-09,13.4
2023-09-10,13.4
2023-09-11,12.8
2023-09-12,12.8
2023-09-13,12.9
2023-09-14,12.8
2023-09-15,12.8
2023-09-16,12.7
2023-09-17,12.7
2023-09-18,12.8
2023-09-19,12.7
2023-09-20,12.9
2023-09-21,13.1
2023-09-22,13.3
2023-09-23,13.3
2023-09-24,13.4
2023-09-25,14.0
2023-09-26,15.0
2023-09-27,14.2
2023-09-28,14.0
2023-09-29,14.0
2023-09-30,14.2
2023-10-01,14.2
2023-10-02,14.2
2023-10-03,14.3
2023-10-04,14.3
2023-10-05,14.2
2023-10-06,14.3
2023-10-07,14.3
2023-10-08,14.5
2023-10-09,14.0
2023-10-10,14.2
2023-10-11,14.6
2023-10-12,14.2
2023-10-13,14.1
2023-10-14,14.2
2023-10-15,14.1
2023-10-16,14.2
2023-10-17,14.3
2023-10-18,14.4
2023-10-19,14.5
2023-10-20,14.9
2023-10-21,14.2
2023-10-22,14.1
2023-10-23,14.1
2023-10-24,14.2
2023-10-25,15.5
2023-10-26,15.0
2023-10-27,15.2
2023-10-28,15.1
2023-10-29,15.3
2023-10-30,15.3
2023-10-31,15.3
2023-11-01,14.9
2023-11-02,16.3
2023-11-03,16.0
2023-11-04,16.1
2023-11-05,16.4
2023-11-06,19.6
2023-11-07,16.9
2023-11-08,15.7
2023-11-09,15.3
2023-11-10,14.9
2023-11-11,14.5
2023-11-12,14.5
2023-11-13,14.4
2023-11-14,14.6
2023-11-15,14.6
2023-11-16,14.5
2023-11-17,14.3
2023-11-18,16.5
2023-11-19,17.3
2023-11-20,15.1
2023-11-21,14.6
2023-11-22,14.5
2023-11-23,14.4
2023-11-24,14.3
2023-11-25,14.3
2023-11-26,14.2
2023-11-27,14.2
2023-11-28,13.9
2023-11-29,13.9
2023-11-30,14.2
2023-12-01,14.4
2023-12-02,17.6
2023-12-03,25.9
2023-12-04,23.4
2023-12-05,19.4
2023-12-06,19.0
2023-12-07,18.9
2023-12-08,17.3
2023-12-09,16.5
2023-12-10,16.5
2023-12-11,17.7
2023-12-12,18.0
2023-12-13,17.2
2023-12-14,16.7
2023-12-15,16.3
2023-12-16,16.1
2023-12-17,15.9
2023-12-18,16.1
2023-12-19,17.3
2023-12-20,18.5
2023-12-21,17.2
2023-12-22,16.9
2023-12-23,16.5
2023-12-24,16.3
2023-12-25,16.5
2023-12-26,16.3
2023-12-27,16.4
2023-12-28,16.1
2023-12-29,17.2
2023-12-30,18.8
2023-12-31,17.7
2024-01-01,17.2
2024-01-02,17.1
2024-01-03,16.8
2024-01-04,16.8
2024-01-05,16.6
2024-01-06,16.8
2024-01-07,16.4
2024-01-08,16.4
2024-01-09,17.9
2024-01-10,16.9
2024-01-11,16.5
2024-01-12,16.4
2024-01-13,16.9
2024-01-14,19.7
2024-01-15,17.2
2024-01-16,16.5
2024-01-17,18.4
2024-01-18,18.8
2024-01-19,18.1
2024-01-20,19.4
2024-01-21,20.8
2024-01-22,22.5
2024-01-23,22.2
2024-01-24,23.0
2024-01-25,23.4
2024-01-26,25.9
2024-01-27,28.2
2024-01-28,30.0
2024-01-29,29.7
2024-01-30,30.1
2024-01-31,32.4
2024-02-01,34.1
2024-02-02,31.4
2024-02-03,28.7
2024-02-04,27.5
2024-02-05,27.3
2024-02-06,25.6
2024-02-07,24.5
2024-02-08,23.6
2024-02-09,22.6
2024-02-10,21.8
2024-02-11,21.3
2024-02-12,20.8
2024-02-13,20.3
2024-02-14,20.4
2024-02-15,20.4
2024-02-16,20.0
2024-02-17,20.2
2024-02-18,21.3
2024-02-19,21.1
2024-02-20,20.6
2024-02-21,20.1
2024-02-22,19.9
2024-02-23,19.6
2024-02-24,19.5
2024-02-25,19.5
2024-02-26,20.1
2024-02-27,19.4
2024-02-28,19.2
2024-02-29,19.9
2024-03-01,19.6
2024-03-02,19.2
2024-03-03,18.9
2024-03-04,18.7
2024-03-05,19.4
2024-03-06,19.2
2024-03-07,18.5
2024-03-08,18.1
2024-03-09,18.1
2024-03-10,17.9
2024-03-11,17.9
2024-03-12,18.2
2024-03-13,17.6
2024-03-14,17.5
2024-03-15,17.5
2024-03-16,17.6
2024-03-17,17.5
2024-03-18,17.5
2024-03-19,18.2
2024-03-20,19.0
2024-03-21,19.8
2024-03-22,20.6
2024-03-23,21.4
2024-03-24,21.0
2024-03-25,20.9
2024-03-26,20.6
2024-03-27,22.0
2024-03-28,21.9
2024-03-29,21.3
2024-03-30,21.0
2024-03-31,20.9
2024-04-01,20.7
2024-04-02,21.4
2024-04-03,23.2
2024-04-04,22.9
2024-04-05,22.3
2024-04-06,21.7
2024-04-07,21.1
2024-04-08,21.1
2024-04-09,21.4
2024-04-10,22.1
2024-04-11,23.1
2024-04-12,24.5
2024-04-13,25.0
2024-04-14,30.7
2024-04-15,30.9
2024-04-16,29.5
2024-04-17,28.9
2024-04-18,28.3
2024-04-19,29.1
2024-04-20,30.3
2024-04-21,31.9
2024-04-22,32.6
2024-04-23,35.4
2024-04-24,39.4
2024-04-25,40.7
2024-04-26,51.2
2024-04-27,44.1
2024-04-28,41.1
2024-04-29,39.3
2024-04-30,34.3
2024-05-01,32.3
2024-05-02,39.2
2024-05-03,38.1
2024-05-04,46.7
2024-05-05,36.5
2024-05-06,34.0
2024-05-07,32.4
2024-05-08,31.0
2024-05-09,32.3
2024-05-10,38.1
2024-05-11,45.6
2024-05-12,50.7
2024-05-13,53.6
2024-05-14,53.2
2024-05-15,54.2
2024-05-16,58.6
2024-05-17,58.5
2024-05-18,51.5
2024-05-19,43.9
2024-05-20,37.8
2024-05-21,35.4
2024-05-22,41.8
2024-05-23,37.5
2024-05-24,33.7
2024-05-25,33.6
2024-05-26,33.6
2024-05-27,34.7
2024-05-28,36.5
2024-05-29,34.3
2024-05-30,31.8
2024-05-31,31.5
2024-06-01,32.0
2024-06-02,33.6
2024-06-03,65.0
2024-06-04,41.8
2024-06-05,35.5
2024-06-06,34.0
2024-06-07,32.0
2024-06-08,31.8
2024-06-09,30.6
2024-06-10,28.7
2024-06-11,26.9
2024-06-12,25.9
2024-06-13,24.7
2024-06-14,23.9
2024-06-15,23.0
2024-06-16,22.2
2024-06-17,21.9
2024-06-18,21.3
2024-06-19,20.8
2024-06-20,20.3
2024-06-21,20.0
2024-06-22,19.6
2024-06-23,19.1
2024-06-24,18.7
2024-06-25,18.5
2024-06-26,18.1
2024-06-27,17.7
2024-06-28,17.5
